Home > Weather > Liberec > Past weeks

Flag for Czech Republic Past Weather in Liberec, Czech Republic — Yesterday and Last 2 Weeks

Now
59 °F

Cool.


Feels Like: 59 °F
Forecast: 58 / 75 °F
Wind: 2 mph from Southeast

Location: Liberec

Current Time: Jun 29, 2016 at 2:19:20 AM

Latest Report: Jun 29, 2016 at 1:00 AM


Visibility: 13 mi

Pressure: 29.99 "Hg

Humidity: 88%

Dew Point: 56 °F

Location of LiberecLocation

Past Weather in Liberec — Graph

°F

Liberec Temperature Yesterday

Maximum temperature yesterday: 68 °F (at 6:00 PM)
Minimum temperature yesterday: 48 °F (at 4:00 AM)
Average temperature yesterday: 60 °F

High & Low Weather Summary for the Past Weeks

 TemperatureHumidityPressure
High87 °F (Jun 24, 4:00 PM)99% (Jun 19, 5:00 AM)30.30 "Hg (Jun 19, 5:00 AM)
Low46 °F (Jun 19, 5:00 AM)32% (Jun 24, 4:00 PM)29.44 "Hg (Jun 17, 5:00 AM)
Average63 °F75%29.96 "Hg
* Reported Jun 14 1:00 AM — Jun 29 1:00 AM, Liberec, Weather by CustomWeather, © 2016

Note: Actual official high and low records may vary slightly from our data, if they occured in-between our weather recording intervals... More about our weather records

Advertising

Liberec Weather History for the Previous 24 Hours

Scroll right to see more
 ConditionsComfort  
Time TempWeatherWind HumidityBarometerVisibility
1:00 AM
Wed, Jun 29
59 °FCool.2 mph88%29.99 "Hg12 mi
12:00 AM59 °FCool.2 mph92%30.01 "Hg12 mi
11:00 PM
Tue, Jun 28
58 °FCool.1 mph88%30.02 "Hg12 mi
10:00 PM59 °FPassing clouds.1 mph87%30.03 "Hg14 mi
9:00 PM60 °FPartly sunny.1 mph81%30.03 "Hg19 mi
8:00 PM67 °FScattered clouds.1 mph64%30.00 "Hg19 mi
7:00 PM65 °FMild.1 mph72%30.01 "Hg12 mi
6:00 PM68 °FMild.2 mph58%30.01 "Hg12 mi
5:00 PM67 °FScattered clouds.2 mph66%30.02 "Hg16 mi
4:00 PM65 °FPartly sunny.2 mph77%30.04 "Hg12 mi
3:00 PM64 °FSprinkles. Overcast.1 mph77%30.05 "Hg7 mi
2:00 PM64 °FSprinkles. Overcast.5 mph76%30.05 "Hg16 mi
1:00 PM67 °FPartly sunny.1 mph57%30.04 "Hg19 mi
12:00 PM66 °FPartly sunny.2 mph55%30.06 "Hg19 mi
11:00 AM64 °FPartly sunny.1 mph63%30.07 "Hg19 mi
10:00 AM62 °FOvercast.1 mph73%30.08 "Hg19 mi
9:00 AM60 °FOvercast.1 mph77%30.08 "Hg16 mi
8:00 AM60 °FOvercast.1 mph76%30.07 "Hg16 mi
7:00 AM56 °FCool.1 mph85%30.09 "Hg12 mi
6:00 AM52 °FCool.1 mph98%30.10 "Hg9 mi
5:00 AM49 °FRain showers. Cloudy.1 mph97%30.11 "Hg0 mi
4:00 AM48 °FDrizzle. Overcast.1 mph97%30.11 "Hg0 mi
3:00 AM51 °FCool.1 mph97%30.11 "Hg6 mi
2:00 AM53 °FCool.1 mph97%30.11 "Hg7 mi
Weather by CustomWeather, © 2016

See weather overviewHow to use our weather pages